Location: Arena
(42.5007°N, 9.4650°E)
Time: 20:50:19
(UTC+00:00)

CZ-2C R/B - Pass Details

Date: 09 April 2020
Orbit: 785 x 870 km, 98.3° (Epoch: 25 May)

Event Time Altitude Azimuth Distance (km) Brightness Sun altitude
Rises 19:17:51 0° 18° (NNE) 3,285 5.9 -14.8°
Reaches altitude 10° 19:20:15 10° 23° (NNE) 2,354 5.1 -15.2°
Maximum altitude 19:25:18 52° 100° (E) 979 2.7 -16.0°
Drops below altitude 10° 19:30:23 10° 176° (S) 2,364 4.7 -16.9°
Enters shadow 19:32:01 - 180° (S) 3,005 5.3 -17.1°
